Simultaneous Nadir Overpasses (SNOs) Predictions

Prediction of SNOs between GOES-14 and NOAA-20 Satellite Orbit:

Table of predicted SNOs for the next 14.0 days since TLE Epoch: 3/12/2022
Index Date Time (GOES-14) GOES-14 Lat,Lon NOAA-20 Lat,Lon Distance(km) Time Diff (sec)
1 03/12/2022 08:14:09 0.09,-104.59 -0.50,-101.99 296.58 80
2 03/13/2022 20:36:07 -0.10,-104.43 -0.72,-107.29 326.09 80
3 03/14/2022 20:14:42 -0.10,-104.42 0.25,-102.75 189.03 80
4 03/16/2022 08:36:32 0.10,-104.57 0.87,-108.04 395.46 80
5 03/17/2022 08:20:29 0.10,-104.57 -0.16,-103.51 121.42 80
6 03/18/2022 20:42:25 -0.10,-104.44 -1.11,-108.80 498.07 80
7 03/19/2022 20:21:02 -0.10,-104.43 -0.08,-104.27 17.07 80
8 03/22/2022 08:24:08 0.10,-104.55 0.23,-105.02 53.75 80
9 03/23/2022 08:08:04 0.10,-104.56 -0.80,-100.49 462.88 80
10 03/24/2022 20:30:01 -0.10,-104.42 -0.39,-105.80 156.02 80
11 03/25/2022 20:08:37 -0.11,-104.41 0.58,-101.26 358.67 80
